Theta_e
317 316 317 318 317 317 317 317 315 313 313 312 309 304 300 299 298 297 297 297 297 297 297 297 297 297 297 298 298 297 297 298 302 306 303 300 301 302 304 305 304 306
315 315 315 315 315 315 314 313 312 312 311 308 303 298 297 297 297 297 296 296 297 296 297 297 297 297 297 298 298 296 297 299 302 306 305 300 298 300 303 304 305 307
314 313 313 313 313 312 311 311 311 310 307 301 297 297 296 296 296 297 296 296 296 296 296 296 296 297 297 297 297 297 298 299 302 304 304 303 301 301 300 301 305 306
312 312 312 312 311 311 311 311 309 305 300 297 297 297 296 296 296 296 296 296 296 296 296 296 295 296 296 296 296 296 298 298 301 304 304 304 303 301 299 301 305 305
311 312 312 312 311 311 311 309 304 300 297 297 297 298 298 298 297 297 296 296 296 296 295 295 295 295 296 296 296 295 296 297 300 302 302 303 304 303 302 303 304 305
311 311 311 311 310 309 308 304 299 297 297 297 297 298 299 298 298 299 297 296 296 295 295 295 295 295 296 297 297 296 296 296 299 300 300 302 304 303 303 303 304 304
311 311 311 310 309 307 304 300 297 297 297 297 297 298 298 297 298 298 297 295 295 295 295 295 295 295 295 296 298 299 299 299 300 301 302 303 303 302 302 303 303 303
310 309 308 307 305 302 300 297 296 296 297 297 297 297 298 298 299 300 298 295 294 295 295 295 295 295 295 296 298 301 303 302 302 303 304 304 303 303 303 303 302 302
307 306 304 302 301 299 298 297 296 297 297 296 296 297 298 298 300 300 298 295 294 294 294 294 295 294 295 295 296 300 304 303 303 304 304 304 304 303 302 302 302 301
304 302 301 300 299 298 297 297 297 298 297 296 296 296 297 299 300 298 296 295 294 294 294 294 294 294 294 295 294 299 303 303 303 304 303 302 303 303 302 302 301 300
301 300 299 298 298 297 297 297 296 296 297 297 296 295 297 301 301 298 295 294 294 294 294 294 294 294 294 295 294 298 302 303 303 304 303 302 303 302 301 301 300 300
298 297 297 296 296 296 296 295 296 297 298 297 296 295 296 298 299 296 294 294 294 294 294 294 294 294 294 294 294 296 301 303 303 303 303 302 302 301 301 300 299 299
297 296 296 296 295 296 295 295 296 297 297 297 298 297 296 296 296 294 293 293 293 293 294 294 294 294 294 294 295 296 299 302 302 302 302 301 301 301 300 300 299 299
296 296 295 295 295 295 295 295 295 296 295 296 297 298 299 300 298 297 295 293 293 293 293 293 293 294 294 294 295 296 298 301 302 302 302 301 300 300 300 299 299 298
295 295 295 295 295 295 295 295 294 294 294 294 296 298 302 303 301 299 296 293 293 293 293 293 293 294 294 293 295 296 297 299 301 301 301 300 300 300 299 299 298 298
295 295 295 295 295 294 295 295 294 294 294 294 295 297 301 302 301 298 295 292 293 293 292 293 293 293 294 293 294 296 297 299 300 301 301 300 299 300 299 298 298 297
296 296 296 295 294 294 294 294 294 295 294 294 295 296 298 301 301 298 293 291 293 292 292 293 293 293 294 293 294 296 297 299 300 300 300 300 299 299 299 298 298 297
298 298 296 295 295 295 294 294 294 294 294 294 294 295 297 300 301 301 296 292 292 292 292 292 293 293 293 293 294 295 297 299 300 300 300 300 299 298 299 298 298 297
300 299 298 298 297 296 294 295 295 294 294 294 294 294 295 297 300 302 300 294 291 292 292 292 292 293 292 293 294 294 296 298 300 300 300 300 298 298 298 298 298 297
302 301 300 300 298 297 296 295 294 293 294 294 294 293 294 295 297 300 301 298 292 291 292 292 292 292 292 293 293 294 296 297 299 300 300 299 298 298 298 298 298 297
302 301 300 300 299 298 297 295 294 296 297 296 296 295 294 294 294 296 300 300 296 292 291 292 292 291 292 292 292 294 295 296 297 298 299 299 299 298 298 298 297 297
301 300 300 300 299 298 296 296 297 299 298 296 296 295 294 293 292 293 295 297 298 295 292 291 292 291 291 291 292 292 293 294 295 296 297 299 299 298 297 298 297 296
300 300 300 300 299 297 296 297 298 298 297 296 296 296 296 294 293 292 292 293 295 295 293 292 292 292 291 291 291 292 292 293 293 293 295 298 299 298 297 297 297 297
300 299 300 300 299 297 297 299 299 298 299 299 299 299 299 298 296 294 293 292 292 292 292 292 291 292 292 291 291 291 291 291 292 292 293 295 298 298 297 297 297 297
300 299 300 300 299 297 298 299 299 299 299 299 300 300 300 300 299 298 296 294 294 293 292 292 292 291 291 291 291 291 291 291 291 291 291 293 295 297 297 297 297 297
300 300 300 299 297 297 297 298 298 299 300 300 300 300 299 299 299 299 299 298 298 297 296 295 293 291 291 291 291 291 291 291 291 291 291 291 292 295 297 297 296 296
Wind_Speed
6 8 12 13 12 11 10 9 9 10 10 7 8 10 12 12 12 12 12 11 11 10 10 11 10 11 11 12 12 12 11 12 13 13 12 12 11 11 11 11 12 13
7 8 10 12 12 11 10 9 11 12 9 9 11 13 13 11 12 12 12 12 11 11 11 11 12 12 13 13 13 13 12 12 13 11 10 11 12 11 11 11 12 12
8 9 9 11 11 10 10 11 12 11 10 12 14 14 14 13 12 12 13 13 12 12 12 12 13 14 14 14 13 14 13 12 13 11 10 11 13 12 11 11 12 12
9 9 9 10 11 12 12 11 11 13 14 15 15 14 15 14 13 13 14 14 14 14 13 13 14 14 15 14 13 13 13 12 13 12 10 11 12 13 12 13 13 13
10 11 10 11 13 13 12 11 13 15 16 15 15 15 14 13 14 14 14 14 14 14 14 14 14 14 15 14 14 14 13 13 13 12 10 11 12 13 13 13 13 13
13 13 13 13 13 13 13 13 15 16 15 15 15 14 14 14 14 14 13 13 13 13 14 13 13 13 13 14 14 15 14 14 14 13 12 12 12 12 12 13 13 13
14 14 14 14 14 15 16 16 16 16 16 15 15 14 14 14 14 14 12 13 13 12 13 12 12 12 12 13 14 14 14 14 14 13 13 12 12 12 13 14 13 13
14 14 14 15 15 16 17 16 16 16 15 15 15 15 14 14 14 13 11 12 12 12 12 12 12 12 12 12 13 13 12 13 13 13 12 12 12 13 13 13 13 13
14 16 17 17 17 17 17 17 17 16 14 15 15 15 14 14 13 12 11 11 12 11 11 11 12 12 12 12 12 14 12 11 11 12 11 11 12 12 12 12 13 13
17 19 18 18 18 18 18 18 17 16 15 15 14 14 14 14 13 11 10 11 11 11 11 11 12 12 12 11 11 13 12 11 11 11 10 11 11 11 12 12 13 13
19 19 19 19 19 18 18 17 17 16 15 14 14 13 14 13 11 10 10 11 11 11 11 11 12 12 12 10 10 12 12 11 11 10 11 12 11 11 12 12 12 13
20 19 18 19 18 18 17 17 17 16 15 14 13 13 13 12 11 10 11 12 12 12 12 11 12 12 11 11 10 10 12 11 10 10 10 11 11 11 12 13 13 13
19 19 18 18 18 18 17 17 16 15 15 14 14 13 13 12 11 11 12 13 13 13 12 12 12 12 11 11 10 10 11 11 10 10 10 10 11 11 11 13 14 13
20 19 19 18 18 17 16 16 15 14 14 15 14 14 13 12 11 12 13 14 13 13 13 13 13 13 12 12 10 10 10 11 10 10 10 10 12 11 11 13 13 13
19 19 18 18 17 17 16 15 15 15 14 14 14 14 14 12 10 11 12 13 14 14 14 14 14 15 15 13 12 11 11 12 11 10 10 11 12 11 12 13 13 13
20 19 18 17 16 16 16 16 16 16 15 14 14 15 14 13 11 11 12 14 14 14 15 15 15 16 15 14 12 11 12 13 12 10 9 11 13 11 12 14 13 14
19 18 18 17 17 16 16 16 16 16 15 14 15 15 15 13 11 11 13 15 15 15 16 16 16 16 14 13 12 11 11 13 12 11 9 10 12 10 11 14 14 14
19 18 18 18 17 17 17 17 16 16 15 15 15 15 14 13 11 9 11 15 15 15 16 17 16 16 15 14 13 12 11 12 12 11 10 10 11 10 11 14 14 14
18 18 18 18 17 17 17 17 17 17 16 15 15 14 14 13 13 10 8 11 16 16 16 17 17 17 16 15 14 13 13 12 11 10 9 10 11 11 11 12 13 16
19 19 19 18 18 18 17 18 18 18 17 16 15 15 14 13 13 11 8 8 13 16 16 17 17 18 17 16 15 14 13 13 10 9 9 9 12 13 11 11 14 20
19 19 19 18 18 18 18 19 18 17 15 15 14 14 14 13 13 12 9 6 9 14 17 17 17 18 17 16 16 14 12 13 11 8 7 7 12 14 12 12 17 22
20 20 20 19 18 18 19 18 17 15 15 15 14 13 13 13 13 12 11 8 7 10 15 17 16 17 17 17 17 15 13 14 12 9 5 4 8 13 13 14 18 22
21 21 20 19 19 19 19 18 17 16 15 14 13 12 12 12 12 13 13 12 9 9 13 16 16 17 17 17 17 16 15 14 14 13 8 4 4 8 12 15 18 20
21 21 20 19 19 19 19 17 15 14 13 12 11 10 9 8 8 10 11 13 13 13 14 16 16 17 18 18 17 17 16 15 15 15 12 7 4 5 9 14 18 19
21 21 20 19 19 19 19 17 16 15 13 11 10 9 8 7 5 6 8 10 13 15 16 17 17 17 18 18 18 17 17 16 16 16 16 12 7 5 9 12 15 17
21 20 19 19 20 19 18 17 16 14 11 10 9 8 8 7 6 5 5 7 9 11 14 16 17 17 17 18 18 17 16 16 16 17 18 17 12 8 10 14 15 15
Wind_Direction
179 164 164 168 172 172 171 176 157 115 100 111 117 115 113 109 106 101 94 89 85 84 85 86 85 82 80 76 71 65 63 67 62 45 35 39 42 36 33 29 25 31
158 155 159 162 163 164 163 150 121 107 116 130 121 112 108 105 103 100 97 93 88 86 87 88 87 83 79 76 73 68 65 68 63 48 33 35 40 39 33 34 33 28
150 151 146 148 153 148 127 111 110 117 127 125 118 112 108 104 102 100 97 93 90 89 87 86 86 82 78 76 75 71 66 66 62 49 39 35 32 33 32 39 37 21
135 134 127 122 119 113 106 106 118 127 125 122 118 113 108 104 103 101 97 92 88 87 85 84 84 83 80 76 74 73 68 65 60 47 41 37 29 27 29 37 35 16
114 111 110 106 108 113 117 122 128 130 128 125 120 115 109 104 100 94 91 89 87 85 84 83 83 83 81 76 71 72 68 65 60 49 46 43 32 25 24 31 34 19
115 116 118 118 119 121 120 123 129 130 127 123 120 117 111 106 100 92 88 87 86 86 85 83 83 81 79 76 70 65 62 61 58 49 47 44 33 25 24 29 32 22
127 126 125 124 127 130 129 131 134 131 125 122 118 114 110 106 98 90 87 87 85 85 84 82 81 78 76 76 70 58 48 47 48 42 39 38 30 25 26 27 26 22
128 126 127 128 132 136 137 135 134 131 127 125 121 115 111 105 96 87 83 84 82 80 77 74 72 70 69 73 73 61 42 34 36 34 30 32 28 25 25 22 21 19
128 130 133 133 135 137 137 134 131 127 124 123 121 117 110 103 97 91 85 83 80 74 70 66 63 61 61 65 73 70 50 30 35 34 27 32 29 22 22 20 21 17
135 137 140 140 140 140 138 136 132 127 124 121 118 115 110 100 92 90 87 83 78 72 66 62 58 56 55 55 64 70 55 31 35 34 25 34 33 20 20 21 20 14
144 146 147 147 144 142 140 137 133 128 123 119 117 116 112 103 95 91 85 80 74 68 62 58 54 52 52 47 48 62 59 35 30 34 26 31 33 19 17 20 19 12
151 150 150 149 146 144 141 137 133 127 122 119 117 115 113 111 107 97 85 78 71 64 59 56 54 50 49 46 38 54 65 45 28 35 30 23 26 22 14 14 16 12
152 151 151 149 147 145 142 139 135 131 129 125 118 112 108 105 99 89 80 72 65 61 57 53 54 51 48 49 41 46 64 56 35 33 29 19 22 23 14 9 12 12
154 152 151 149 147 146 144 142 137 134 134 130 123 115 104 94 87 80 73 65 60 57 54 50 51 51 48 50 49 48 60 65 51 34 24 21 24 21 13 7 7 12
153 152 152 150 149 146 144 142 136 132 131 127 124 118 107 100 94 83 72 65 61 56 52 48 45 47 45 45 51 54 58 65 61 39 18 18 24 20 7 0 3 14
152 150 150 148 147 146 143 142 138 134 132 127 125 123 116 110 104 91 75 68 62 55 52 50 46 46 43 40 46 51 52 60 60 42 21 16 21 18 1 354 358 10
150 148 148 146 144 143 141 140 138 135 132 128 125 124 119 112 106 93 74 66 62 55 52 51 48 48 46 39 43 49 50 54 52 41 28 16 14 16 2 350 352 5
146 145 146 143 141 142 141 139 137 134 130 128 124 123 120 114 108 96 73 64 62 57 53 52 50 49 46 41 43 48 52 54 48 39 28 11 9 13 3 350 346 355
142 140 139 138 140 143 142 139 137 133 130 126 122 120 119 116 112 106 86 65 61 58 53 51 51 49 45 43 42 44 51 54 44 31 21 6 3 6 359 347 338 341
141 139 138 140 141 141 141 141 137 131 125 120 116 112 110 110 109 108 103 71 59 59 55 51 49 47 44 42 41 40 45 49 40 26 21 5 355 0 359 341 335 341
143 141 140 141 141 141 142 140 134 127 123 119 115 110 104 101 101 103 107 90 60 56 55 52 48 46 42 39 40 38 38 42 37 21 24 11 354 360 360 336 334 343
145 143 142 142 143 144 143 139 133 129 128 124 119 114 106 100 96 93 96 97 79 57 53 51 47 44 40 36 37 34 28 34 31 14 22 47 11 2 354 336 337 342
146 145 145 144 145 146 143 138 132 129 127 122 116 111 105 98 92 87 84 81 78 65 55 51 45 42 39 33 32 30 23 26 30 22 24 65 51 14 355 341 340 343
148 147 145 144 146 148 142 136 133 132 130 127 124 120 112 101 89 82 76 71 68 61 53 49 43 37 34 29 26 25 20 21 27 25 22 32 55 41 16 351 338 340
148 148 147 147 151 150 144 139 136 132 127 123 122 122 120 119 111 87 69 60 56 49 42 40 37 32 28 23 19 18 15 16 21 19 18 19 15 25 27 359 335 334
149 150 150 153 153 149 143 140 137 131 124 119 120 129 136 135 126 97 62 41 38 35 27 25 26 27 25 18 13 10 9 11 14 13 12 10 2 11 19 355 334 332